Radiation Dose at Monitoring Post of Fukushima Daini Nuclear Power Station
Date,Time,MP-1(microSv/h),MP-2(microSv/h),MP-3(microSv/h),MP-4(microSv/h),MP-5(microSv/h),MP-6(microSv/h),MP-7(microSv/h),Wind Direction,Wind Velocity(m/s),Rain
2019/06/15,00:00,0.192,0.173,0.292,0.274,0.270,0.147,0.089,south,5.9,No
2019/06/15,00:10,0.191,0.175,0.296,0.278,0.270,0.145,0.090,south,5.6,No
2019/06/15,00:20,0.193,0.175,0.293,0.274,0.271,0.146,0.090,south,6.0,No
2019/06/15,00:30,0.192,0.176,0.294,0.276,0.270,0.145,0.090,south,4.8,No
2019/06/15,00:40,0.191,0.174,0.294,0.274,0.273,0.146,0.090,south,5.2,No
2019/06/15,00:50,0.191,0.176,0.294,0.278,0.269,0.146,0.089,south,5.7,No
2019/06/15,01:00,0.191,0.175,0.295,0.276,0.272,0.145,0.090,south,6.5,No
2019/06/15,01:10,0.193,0.176,0.292,0.274,0.270,0.146,0.089,south,5.6,No
2019/06/15,01:20,0.191,0.175,0.295,0.277,0.269,0.146,0.090,south,4.6,No
2019/06/15,01:30,0.194,0.175,0.294,0.274,0.271,0.146,0.090,south,4.6,No
2019/06/15,01:40,0.192,0.176,0.295,0.277,0.269,0.146,0.090,south,5.9,No
2019/06/15,01:50,0.191,0.175,0.292,0.275,0.273,0.145,0.090,south,5.9,No
2019/06/15,02:00,0.192,0.177,0.293,0.277,0.269,0.146,0.090,south,5.1,No
2019/06/15,02:10,0.191,0.175,0.294,0.277,0.272,0.147,0.090,south,5.3,No
2019/06/15,02:20,0.194,0.175,0.293,0.275,0.270,0.147,0.089,south,5.3,No
2019/06/15,02:30,0.191,0.174,0.295,0.277,0.271,0.146,0.091,south,6.0,Yes
2019/06/15,02:40,0.194,0.177,0.293,0.275,0.271,0.147,0.090,south,6.2,Yes
2019/06/15,02:50,0.192,0.176,0.295,0.277,0.272,0.147,0.091,south,6.0,Yes
2019/06/15,03:00,0.194,0.176,0.295,0.274,0.272,0.147,0.091,south-southeast,6.2,Yes
2019/06/15,03:10,0.193,0.177,0.298,0.278,0.270,0.147,0.092,south-southeast,6.2,Yes
2019/06/15,03:20,0.192,0.177,0.295,0.277,0.273,0.149,0.092,south-southeast,6.0,Yes
2019/06/15,03:30,0.194,0.176,0.297,0.279,0.270,0.149,0.092,south,5.5,Yes
2019/06/15,03:40,0.193,0.177,0.296,0.276,0.273,0.146,0.093,south,4.8,Yes
2019/06/15,03:50,0.195,0.177,0.295,0.279,0.271,0.148,0.092,south,5.2,Yes
2019/06/15,04:00,0.191,0.177,0.296,0.276,0.273,0.149,0.092,south-southeast,5.4,Yes
2019/06/15,04:10,0.194,0.176,0.294,0.278,0.272,0.147,0.091,south-southeast,5.5,Yes
2019/06/15,04:20,0.192,0.178,0.296,0.277,0.271,0.147,0.091,south-southeast,5.7,Yes
2019/06/15,04:30,0.193,0.177,0.294,0.278,0.273,0.146,0.092,south-southeast,6.3,Yes
2019/06/15,04:40,0.193,0.177,0.295,0.278,0.270,0.150,0.092,southeast,6.8,Yes
2019/06/15,04:50,0.194,0.176,0.296,0.277,0.274,0.148,0.093,south-southeast,8.4,Yes
2019/06/15,05:00,0.194,0.177,0.295,0.278,0.269,0.149,0.092,south-southeast,8.1,Yes
2019/06/15,05:10,0.194,0.176,0.295,0.276,0.273,0.148,0.092,south-southeast,6.6,Yes
2019/06/15,05:20,0.194,0.178,0.296,0.276,0.271,0.149,0.093,south-southeast,5.7,Yes
2019/06/15,05:30,0.194,0.176,0.295,0.276,0.272,0.148,0.093,south-southeast,4.7,Yes
2019/06/15,05:40,0.195,0.178,0.296,0.280,0.271,0.148,0.093,south-southeast,4.5,Yes
2019/06/15,05:50,0.192,0.176,0.295,0.276,0.272,0.149,0.093,south-southeast,3.3,Yes
2019/06/15,06:00,0.194,0.178,0.296,0.279,0.272,0.149,0.093,east-southeast,6.7,Yes
2019/06/15,06:10,0.193,0.177,0.291,0.274,0.269,0.150,0.094,east-southeast,6.5,Yes
2019/06/15,06:20,0.194,0.177,0.293,0.276,0.270,0.149,0.093,south-southeast,5.7,Yes
2019/06/15,06:30,0.194,0.176,0.293,0.273,0.272,0.149,0.094,south-southeast,6.2,Yes
2019/06/15,06:40,0.194,0.178,0.294,0.276,0.272,0.149,0.094,south,6.4,Yes
2019/06/15,06:50,0.193,0.176,0.292,0.273,0.271,0.149,0.094,south,8.4,Yes
2019/06/15,07:00,0.194,0.176,0.293,0.276,0.272,0.148,0.094,south,9.0,Yes
2019/06/15,07:10,0.192,0.175,0.291,0.274,0.268,0.147,0.094,south,9.2,Yes
2019/06/15,07:20,0.192,0.176,0.291,0.274,0.270,0.147,0.091,south,8.8,Yes
2019/06/15,07:30,0.191,0.175,0.289,0.272,0.268,0.146,0.092,south,7.0,Yes
2019/06/15,07:40,0.190,0.175,0.291,0.275,0.269,0.146,0.092,south,6.6,Yes
2019/06/15,07:50,0.191,0.175,0.289,0.270,0.267,0.146,0.092,south,5.4,Yes
2019/06/15,08:00,0.191,0.175,0.290,0.271,0.270,0.146,0.091,south-southwest,5.9,Yes
2019/06/15,08:10,0.192,0.173,0.288,0.271,0.265,0.147,0.091,south-southwest,6.2,Yes
2019/06/15,08:20,0.190,0.174,0.289,0.272,0.269,0.146,0.092,south,5.9,Yes
2019/06/15,08:30,0.191,0.174,0.288,0.268,0.265,0.146,0.092,south-southwest,5.4,Yes
2019/06/15,08:40,0.189,0.173,0.286,0.269,0.267,0.145,0.091,south-southwest,3.5,Yes
2019/06/15,08:50,0.189,0.173,0.285,0.268,0.265,0.145,0.092,south-southwest,3.8,Yes
2019/06/15,09:00,0.189,0.173,0.285,0.267,0.269,0.145,0.091,south-southwest,3.0,Yes
2019/06/15,09:10,0.190,0.173,0.286,0.267,0.264,0.144,0.091,south-southwest,3.2,Yes
2019/06/15,09:20,0.189,0.172,0.283,0.269,0.268,0.145,0.091,south-southwest,2.8,Yes
2019/06/15,09:30,0.189,0.173,0.284,0.268,0.265,0.144,0.091,south-southwest,2.9,Yes
2019/06/15,09:40,0.189,0.172,0.282,0.268,0.267,0.143,0.091,southwest,3.0,Yes
2019/06/15,09:50,0.190,0.173,0.285,0.266,0.266,0.143,0.091,south-southwest,2.6,Yes
2019/06/15,10:00,0.188,0.171,0.282,0.266,0.267,0.144,0.091,south-southwest,2.7,Yes
2019/06/15,10:10,0.188,0.172,0.284,0.266,0.265,0.144,0.090,south-southwest,1.3,Yes
2019/06/15,10:20,0.189,0.172,0.281,0.268,0.268,0.143,0.091,south,1.3,No
2019/06/15,10:30,0.189,0.172,0.283,0.266,0.265,0.143,0.089,south,1.9,No
2019/06/15,10:40,0.187,0.171,0.281,0.266,0.265,0.142,0.089,south,2.1,No
2019/06/15,10:50,0.187,0.171,0.283,0.265,0.267,0.141,0.089,south-southeast,1.3,No
2019/06/15,11:00,0.186,0.170,0.282,0.267,0.263,0.142,0.089,south-southeast,0.7,No
2019/06/15,11:10,0.186,0.170,0.283,0.264,0.266,0.140,0.089,-,CALM,Yes
2019/06/15,11:20,0.188,0.171,0.282,0.266,0.265,0.143,0.088,-,CALM,Yes
2019/06/15,11:30,0.187,0.170,0.281,0.264,0.264,0.142,0.090,southeast,1.1,Yes
2019/06/15,11:40,0.189,0.172,0.283,0.267,0.267,0.144,0.089,south-southeast,0.7,Yes
2019/06/15,11:50,0.187,0.171,0.282,0.265,0.265,0.143,0.089,east-southeast,0.9,Yes
2019/06/15,12:00,0.188,0.171,0.283,0.267,0.267,0.143,0.090,east,2.7,Yes
2019/06/15,12:10,0.187,0.172,0.281,0.264,0.265,0.144,0.091,east-southeast,3.6,Yes
2019/06/15,12:20,0.188,0.172,0.284,0.265,0.266,0.143,0.093,east-southeast,2.0,Yes
2019/06/15,12:30,0.189,0.173,0.282,0.265,0.265,0.145,0.093,east,1.6,Yes
2019/06/15,12:40,0.190,0.173,0.284,0.267,0.268,0.144,0.094,east,1.8,Yes
2019/06/15,12:50,0.189,0.175,0.283,0.267,0.268,0.147,0.096,east-southeast,3.7,Yes
2019/06/15,13:00,0.191,0.175,0.284,0.269,0.271,0.146,0.096,east-southeast,4.6,Yes
2019/06/15,13:10,0.189,0.176,0.285,0.269,0.267,0.147,0.096,east,3.4,Yes
2019/06/15,13:20,0.191,0.176,0.284,0.269,0.271,0.148,0.096,east,3.3,Yes
2019/06/15,13:30,0.191,0.176,0.285,0.267,0.269,0.147,0.097,east-southeast,3.5,Yes
2019/06/15,13:40,0.190,0.174,0.284,0.269,0.271,0.146,0.095,southeast,5.2,Yes
2019/06/15,13:50,0.189,0.174,0.284,0.266,0.267,0.146,0.095,east-southeast,6.6,Yes
2019/06/15,14:00,0.190,0.175,0.281,0.267,0.269,0.144,0.094,east,9.2,Yes
2019/06/15,14:10,0.188,0.173,0.283,0.265,0.267,0.145,0.094,east-southeast,9.5,Yes
2019/06/15,14:20,0.189,0.173,0.282,0.265,0.268,0.144,0.094,east-southeast,9.0,Yes
2019/06/15,14:30,0.187,0.172,0.282,0.264,0.266,0.144,0.093,east-southeast,10.4,Yes
2019/06/15,14:40,0.187,0.173,0.279,0.266,0.269,0.143,0.092,east-southeast,8.9,Yes
2019/06/15,14:50,0.187,0.172,0.281,0.263,0.266,0.143,0.092,east-southeast,8.6,Yes
2019/06/15,15:00,0.188,0.172,0.281,0.263,0.267,0.142,0.091,east-southeast,9.0,Yes
2019/06/15,15:10,0.185,0.171,0.281,0.263,0.264,0.143,0.091,east,9.0,Yes
2019/06/15,15:20,0.188,0.172,0.279,0.264,0.268,0.142,0.092,east,9.0,Yes
2019/06/15,15:30,0.186,0.171,0.281,0.264,0.265,0.143,0.093,east,9.5,Yes
2019/06/15,15:40,0.188,0.173,0.279,0.264,0.268,0.143,0.092,east,10.1,Yes
2019/06/15,15:50,0.185,0.173,0.282,0.265,0.266,0.144,0.094,east,9.0,Yes
2019/06/15,16:00,0.188,0.174,0.280,0.263,0.268,0.143,0.093,east,7.3,Yes
2019/06/15,16:10,0.187,0.174,0.282,0.264,0.266,0.144,0.096,east,6.6,Yes
2019/06/15,16:20,0.188,0.176,0.280,0.265,0.269,0.144,0.095,east,5.9,Yes
2019/06/15,16:30,0.187,0.175,0.283,0.263,0.265,0.146,0.096,east,6.3,Yes
2019/06/15,16:40,0.188,0.175,0.282,0.263,0.269,0.145,0.096,east-northeast,5.9,Yes
2019/06/15,16:50,0.186,0.175,0.282,0.265,0.267,0.146,0.095,east-northeast,5.9,Yes
2019/06/15,17:00,0.187,0.174,0.281,0.265,0.270,0.146,0.096,northeast,6.2,Yes
2019/06/15,17:10,0.186,0.174,0.280,0.264,0.266,0.145,0.095,northeast,6.4,Yes
2019/06/15,17:20,0.186,0.174,0.279,0.264,0.269,0.145,0.095,northeast,6.4,Yes
2019/06/15,17:30,0.186,0.175,0.282,0.263,0.265,0.144,0.095,north-northeast,5.4,Yes
2019/06/15,17:40,0.186,0.173,0.281,0.262,0.269,0.144,0.094,north-northeast,5.7,Yes
2019/06/15,17:50,0.184,0.174,0.278,0.262,0.266,0.145,0.094,north,6.2,Yes
2019/06/15,18:00,0.184,0.173,0.280,0.259,0.267,0.143,0.094,north,5.7,Yes
2019/06/15,18:10,0.182,0.174,0.277,0.259,0.262,0.143,0.093,north-northwest,5.9,Yes
2019/06/15,18:20,0.182,0.173,0.278,0.259,0.265,0.143,0.094,northwest,6.3,Yes
2019/06/15,18:30,0.181,0.172,0.276,0.259,0.265,0.142,0.092,north-northwest,8.2,Yes
2019/06/15,18:40,0.182,0.172,0.279,0.259,0.267,0.143,0.094,north-northwest,7.6,Yes
2019/06/15,18:50,0.181,0.172,0.278,0.257,0.265,0.143,0.094,north-northwest,4.2,Yes
2019/06/15,19:00,0.184,0.173,0.280,0.260,0.266,0.143,0.095,north-northwest,5.7,Yes
2019/06/15,19:10,0.183,0.173,0.276,0.259,0.264,0.143,0.094,northwest,6.6,Yes
2019/06/15,19:20,0.185,0.173,0.279,0.261,0.266,0.142,0.094,north-northwest,8.1,Yes
2019/06/15,19:30,0.183,0.172,0.276,0.260,0.264,0.143,0.093,north-northwest,6.8,Yes
2019/06/15,19:40,0.186,0.172,0.279,0.261,0.264,0.142,0.093,north-northwest,6.7,Yes
2019/06/15,19:50,0.183,0.171,0.276,0.261,0.265,0.141,0.092,north-northwest,8.1,Yes
2019/06/15,20:00,0.185,0.172,0.279,0.261,0.264,0.142,0.091,northwest,8.2,Yes
2019/06/15,20:10,0.184,0.171,0.277,0.261,0.264,0.141,0.093,northwest,9.2,Yes
2019/06/15,20:20,0.185,0.172,0.278,0.261,0.265,0.142,0.094,northwest,9.3,Yes
2019/06/15,20:30,0.183,0.171,0.276,0.260,0.267,0.142,0.093,north-northwest,9.0,Yes
2019/06/15,20:40,0.185,0.173,0.278,0.262,0.265,0.142,0.093,northwest,9.0,Yes
2019/06/15,20:50,0.183,0.170,0.277,0.259,0.267,0.141,0.092,northwest,9.0,No
2019/06/15,21:00,0.184,0.171,0.279,0.260,0.264,0.140,0.091,north-northwest,8.8,Yes
2019/06/15,21:10,0.183,0.170,0.276,0.260,0.267,0.141,0.091,north-northwest,7.9,Yes
2019/06/15,21:20,0.185,0.170,0.278,0.262,0.263,0.140,0.091,north-northwest,6.7,Yes
2019/06/15,21:30,0.184,0.169,0.276,0.259,0.266,0.140,0.091,north-northwest,6.8,Yes
2019/06/15,21:40,0.185,0.170,0.278,0.262,0.263,0.139,0.090,northwest,6.2,Yes
2019/06/15,21:50,0.183,0.169,0.275,0.258,0.265,0.140,0.090,north-northwest,5.9,Yes
2019/06/15,22:00,0.184,0.170,0.278,0.260,0.263,0.139,0.089,north-northwest,5.1,No
2019/06/15,22:10,0.183,0.169,0.275,0.260,0.264,0.140,0.090,northwest,4.8,No
2019/06/15,22:20,0.184,0.170,0.277,0.261,0.262,0.139,0.089,north-northwest,3.2,No
2019/06/15,22:30,0.182,0.168,0.276,0.258,0.266,0.139,0.089,north-northwest,4.0,No
2019/06/15,22:40,0.183,0.168,0.276,0.261,0.263,0.136,0.087,north-northwest,3.9,No
2019/06/15,22:50,0.182,0.167,0.275,0.259,0.264,0.138,0.088,north-northwest,4.4,No
2019/06/15,23:00,0.182,0.168,0.277,0.261,0.262,0.137,0.087,north-northwest,4.0,No
2019/06/15,23:10,0.182,0.167,0.276,0.258,0.263,0.138,0.088,north-northwest,4.2,No
2019/06/15,23:20,0.183,0.167,0.278,0.260,0.263,0.137,0.088,north-northwest,4.4,No
2019/06/15,23:30,0.183,0.167,0.275,0.260,0.263,0.138,0.088,north-northwest,4.6,No
2019/06/15,23:40,0.183,0.167,0.277,0.262,0.264,0.138,0.087,north,3.8,No
2019/06/15,23:50,0.182,0.167,0.275,0.259,0.260,0.137,0.086,north-northwest,3.7,No
